SNJ95 RJTT-RJFO

Flight info

Callsign SNJ95
Flight time 1h 21m
Altitude 28000
Route NINOX Y28 MARCO Y45 YANAI BAIEN TFE
Aircraft B738/M-SDE2E3FGHIRWXY/LB1

Departure

Time 2026-04-15 11:18
Airport Tokyo Haneda International Airport (RJTT)

Arrival

Time 2026-04-15 12:39
Airport Oita Airport (RJFO)
Time Latitude Longitude Altitude Speed Heading
2026-04-15 11:12 35.54017 139.80098 19 ft 18 kts 149°
2026-04-15 11:12 35.53909 139.80175 20 ft 18 kts 150°
2026-04-15 11:12 35.53795 139.80178 20 ft 18 kts 185°
2026-04-15 11:12 35.53674 139.80192 22 ft 17 kts 171°
2026-04-15 11:13 35.53569 139.80251 27 ft 17 kts 150°
2026-04-15 11:13 35.53470 139.80319 31 ft 16 kts 150°
2026-04-15 11:13 35.53376 139.80387 35 ft 15 kts 148°
2026-04-15 11:13 35.53285 139.80453 38 ft 15 kts 150°
2026-04-15 11:14 35.53193 139.80518 43 ft 16 kts 150°
2026-04-15 11:14 35.53094 139.80588 47 ft 16 kts 150°
2026-04-15 11:14 35.52999 139.80570 46 ft 15 kts 222°
2026-04-15 11:14 35.52921 139.80482 47 ft 15 kts 222°
2026-04-15 11:15 35.52846 139.80399 47 ft 14 kts 222°
2026-04-15 11:15 35.52776 139.80319 49 ft 14 kts 222°
2026-04-15 11:15 35.52707 139.80242 48 ft 13 kts 223°
2026-04-15 11:15 35.52641 139.80168 50 ft 13 kts 223°
2026-04-15 11:16 35.52564 139.80160 47 ft 13 kts 143°
2026-04-15 11:16 35.52503 139.80236 49 ft 12 kts 134°
2026-04-15 11:16 35.52446 139.80311 51 ft 12 kts 126°
2026-04-15 11:16 35.52469 139.80374 51 ft 6 kts 69°
2026-04-15 11:17 35.52472 139.80421 52 ft 6 kts 71°
2026-04-15 11:17 35.52488 139.80446 52 ft 0 kts 41°
2026-04-15 11:17 35.52514 139.80475 50 ft 25 kts 41°
2026-04-15 11:17 35.52830 139.80830 49 ft 97 kts 43°
2026-04-15 11:18 35.53492 139.81560 68 ft 153 kts 40°
2026-04-15 11:18 35.54310 139.82467 726 ft 158 kts 42°
2026-04-15 11:18 35.55148 139.83412 1414 ft 167 kts 41°
2026-04-15 11:18 35.56081 139.84478 1739 ft 201 kts 52°
2026-04-15 11:19 35.56588 139.86164 1937 ft 228 kts 91°
2026-04-15 11:19 35.56123 139.88044 2566 ft 232 kts 112°
2026-04-15 11:19 35.55500 139.89944 3029 ft 247 kts 109°
2026-04-15 11:19 35.54924 139.91974 3727 ft 257 kts 108°
2026-04-15 11:20 35.54034 139.93865 4497 ft 266 kts 136°
2026-04-15 11:20 35.52402 139.94920 5463 ft 268 kts 168°
2026-04-15 11:20 35.50541 139.94840 6417 ft 269 kts 189°
2026-04-15 11:20 35.48701 139.94398 7301 ft 271 kts 191°
2026-04-15 11:21 35.46909 139.93641 8084 ft 277 kts 212°
2026-04-15 11:21 35.45585 139.91944 9024 ft 279 kts 238°
2026-04-15 11:21 35.44925 139.89693 9870 ft 286 kts 256°
2026-04-15 11:21 35.44587 139.87256 10462 ft 297 kts 258°
2026-04-15 11:22 35.44263 139.84638 10645 ft 322 kts 259°
2026-04-15 11:22 35.43910 139.81826 10842 ft 345 kts 258°
2026-04-15 11:22 35.43515 139.78818 11004 ft 367 kts 258°
2026-04-15 11:22 35.43087 139.75655 11164 ft 385 kts 258°
2026-04-15 11:23 35.42813 139.72341 11550 ft 398 kts 271°
2026-04-15 11:23 35.43436 139.69056 12210 ft 403 kts 287°
2026-04-15 11:23 35.44346 139.65815 12944 ft 403 kts 286°
2026-04-15 11:23 35.45228 139.62534 13503 ft 407 kts 285°
2026-04-15 11:24 35.46099 139.59221 14020 ft 410 kts 285°
2026-04-15 11:24 35.46968 139.55883 14540 ft 412 kts 285°
2026-04-15 11:24 35.47836 139.52538 15071 ft 413 kts 285°
2026-04-15 11:24 35.48604 139.49141 15634 ft 411 kts 277°
2026-04-15 11:25 35.48827 139.45655 16159 ft 410 kts 269°
2026-04-15 11:25 35.48903 139.42148 16640 ft 413 kts 269°
2026-04-15 11:25 35.48983 139.38610 17093 ft 416 kts 269°
2026-04-15 11:25 35.49086 139.35049 17540 ft 419 kts 270°
2026-04-15 11:26 35.49212 139.31469 17984 ft 421 kts 270°
2026-04-15 11:26 35.49351 139.27870 18388 ft 423 kts 270°
2026-04-15 11:26 35.49497 139.24249 18734 ft 426 kts 271°
2026-04-15 11:26 35.49642 139.20610 19093 ft 428 kts 270°
2026-04-15 11:27 35.49786 139.16962 19378 ft 431 kts 270°
2026-04-15 11:27 35.49803 139.13282 19772 ft 430 kts 266°
2026-04-15 11:27 35.49632 139.09617 20140 ft 431 kts 264°
2026-04-15 11:27 35.49421 139.05937 20445 ft 434 kts 264°
2026-04-15 11:28 35.49201 139.02284 20839 ft 435 kts 264°
2026-04-15 11:28 35.48979 138.98581 21158 ft 437 kts 264°
2026-04-15 11:28 35.48769 138.94845 21475 ft 439 kts 264°
2026-04-15 11:28 35.48570 138.91099 21817 ft 441 kts 264°
2026-04-15 11:29 35.48381 138.87331 22130 ft 443 kts 265°
2026-04-15 11:29 35.48196 138.83559 22486 ft 444 kts 265°
2026-04-15 11:29 35.48010 138.79784 22927 ft 443 kts 264°
2026-04-15 11:29 35.47822 138.76006 23223 ft 444 kts 264°
2026-04-15 11:30 35.47630 138.72209 23444 ft 447 kts 264°
2026-04-15 11:30 35.47435 138.68395 23658 ft 449 kts 264°
2026-04-15 11:30 35.47239 138.64561 23904 ft 450 kts 264°
2026-04-15 11:30 35.47040 138.60719 24123 ft 452 kts 264°
2026-04-15 11:31 35.46840 138.56868 24354 ft 453 kts 264°
2026-04-15 11:31 35.46641 138.53054 24593 ft 454 kts 264°
2026-04-15 11:31 35.46437 138.49185 24829 ft 455 kts 264°
2026-04-15 11:31 35.46233 138.45308 25079 ft 456 kts 265°
2026-04-15 11:32 35.46028 138.41432 25319 ft 456 kts 265°
2026-04-15 11:32 35.45822 138.37545 25608 ft 456 kts 265°
2026-04-15 11:32 35.45615 138.33678 26049 ft 453 kts 265°
2026-04-15 11:32 35.45409 138.29849 26568 ft 447 kts 265°
2026-04-15 11:33 35.45203 138.26061 27034 ft 443 kts 264°
2026-04-15 11:33 35.44998 138.22296 27419 ft 442 kts 264°
2026-04-15 11:33 35.44791 138.18536 27778 ft 441 kts 264°
2026-04-15 11:33 35.44581 138.14780 27907 ft 442 kts 264°
2026-04-15 11:34 35.44363 138.11037 27910 ft 440 kts 264°
2026-04-15 11:34 35.44141 138.07282 27905 ft 439 kts 264°
2026-04-15 11:34 35.43920 138.03560 27908 ft 439 kts 264°
2026-04-15 11:34 35.43700 137.99866 27915 ft 439 kts 264°
2026-04-15 11:35 35.43474 137.96093 27900 ft 439 kts 264°
2026-04-15 11:35 35.43251 137.92369 27911 ft 439 kts 264°
2026-04-15 11:35 35.43026 137.88625 27914 ft 439 kts 264°
2026-04-15 11:35 35.42802 137.84899 27908 ft 439 kts 264°
2026-04-15 11:36 35.42575 137.81172 27925 ft 439 kts 264°
2026-04-15 11:36 35.42345 137.77428 27901 ft 439 kts 263°
2026-04-15 11:36 35.42177 137.74951 27906 ft 439 kts 263°
2026-04-15 11:36 35.41813 137.70008 27910 ft 439 kts 262°
2026-04-15 11:37 35.41533 137.66275 27912 ft 440 kts 263°
2026-04-15 11:37 35.41346 137.63752 27905 ft 440 kts 263°
2026-04-15 11:37 35.40982 137.58796 27914 ft 441 kts 263°
2026-04-15 11:37 35.40586 137.55072 27890 ft 440 kts 256°
2026-04-15 11:38 35.40083 137.52616 27916 ft 439 kts 253°
2026-04-15 11:38 35.39272 137.49006 27907 ft 440 kts 253°
2026-04-15 11:38 35.38193 137.44213 27897 ft 441 kts 253°
2026-04-15 11:38 35.37658 137.41811 27894 ft 441 kts 253°
2026-04-15 11:39 35.36858 137.38191 27894 ft 441 kts 253°
2026-04-15 11:39 35.36060 137.34557 27890 ft 441 kts 253°
2026-04-15 11:39 35.35265 137.30924 27897 ft 442 kts 253°
2026-04-15 11:39 35.34468 137.27284 27892 ft 442 kts 253°
2026-04-15 11:40 35.33671 137.23650 27884 ft 442 kts 253°
2026-04-15 11:40 35.32874 137.20020 27892 ft 442 kts 253°
2026-04-15 11:40 35.32076 137.16390 27894 ft 442 kts 253°
2026-04-15 11:40 35.31274 137.12754 27888 ft 441 kts 253°
2026-04-15 11:41 35.30474 137.09135 27902 ft 441 kts 253°
2026-04-15 11:41 35.29663 137.05510 27893 ft 441 kts 253°
2026-04-15 11:41 35.28847 137.01894 27892 ft 441 kts 253°
2026-04-15 11:41 35.28028 136.98269 27887 ft 441 kts 253°
2026-04-15 11:42 35.27215 136.94667 27885 ft 440 kts 253°
2026-04-15 11:42 35.26397 136.91050 27886 ft 440 kts 253°
2026-04-15 11:42 35.25587 136.87442 27887 ft 440 kts 253°
2026-04-15 11:42 35.24780 136.83834 27890 ft 440 kts 253°
2026-04-15 11:43 35.23972 136.80221 27885 ft 439 kts 253°
2026-04-15 11:43 35.23168 136.76628 27881 ft 439 kts 253°
2026-04-15 11:43 35.22355 136.73006 27880 ft 440 kts 253°
2026-04-15 11:43 35.21546 136.69405 27889 ft 440 kts 253°
2026-04-15 11:44 35.20731 136.65784 27897 ft 441 kts 253°
2026-04-15 11:44 35.19929 136.62229 27895 ft 442 kts 253°
2026-04-15 11:44 35.19098 136.58552 27882 ft 442 kts 253°
2026-04-15 11:44 35.18278 136.54930 27890 ft 442 kts 253°
2026-04-15 11:45 35.17469 136.51359 27886 ft 443 kts 253°
2026-04-15 11:45 35.16645 136.47723 27893 ft 444 kts 253°
2026-04-15 11:45 35.15817 136.44082 27895 ft 444 kts 253°
2026-04-15 11:45 35.14988 136.40439 27892 ft 445 kts 253°
2026-04-15 11:46 35.14156 136.36788 27894 ft 446 kts 253°
2026-04-15 11:46 35.13327 136.33151 27896 ft 446 kts 253°
2026-04-15 11:46 35.12490 136.29488 27894 ft 446 kts 253°
2026-04-15 11:46 35.11653 136.25833 27919 ft 446 kts 253°
2026-04-15 11:47 35.10818 136.22189 27905 ft 446 kts 253°
2026-04-15 11:47 35.09983 136.18552 27897 ft 445 kts 253°
2026-04-15 11:47 35.09146 136.14906 27888 ft 445 kts 253°
2026-04-15 11:47 35.08312 136.11273 27891 ft 444 kts 253°
2026-04-15 11:48 35.07487 136.07683 27893 ft 443 kts 253°
2026-04-15 11:48 35.06653 136.04067 27900 ft 443 kts 253°
2026-04-15 11:48 35.05819 136.00450 27892 ft 442 kts 253°
2026-04-15 11:48 35.04986 135.96836 27895 ft 442 kts 253°
2026-04-15 11:49 35.04156 135.93236 27905 ft 441 kts 253°
2026-04-15 11:49 35.03325 135.89632 27896 ft 441 kts 253°
2026-04-15 11:49 35.02493 135.86028 27892 ft 440 kts 253°
2026-04-15 11:49 35.01667 135.82436 27885 ft 439 kts 254°
2026-04-15 11:50 35.00930 135.78818 27897 ft 439 kts 256°
2026-04-15 11:50 35.00261 135.75178 27893 ft 439 kts 257°
2026-04-15 11:50 34.99616 135.71547 27886 ft 438 kts 257°
2026-04-15 11:50 34.98975 135.67935 27883 ft 438 kts 257°
2026-04-15 11:51 34.98320 135.64303 27886 ft 437 kts 257°
2026-04-15 11:51 34.97660 135.60688 27886 ft 436 kts 257°
2026-04-15 11:51 34.96993 135.57077 27877 ft 436 kts 257°
2026-04-15 11:51 34.96323 135.53468 27884 ft 436 kts 257°
2026-04-15 11:52 34.95662 135.49919 27904 ft 436 kts 257°
2026-04-15 11:52 34.94981 135.46264 27896 ft 436 kts 257°
2026-04-15 11:52 34.94318 135.42713 27889 ft 436 kts 257°
2026-04-15 11:52 34.93644 135.39107 27881 ft 436 kts 257°
2026-04-15 11:53 34.92968 135.35502 27883 ft 436 kts 257°
2026-04-15 11:53 34.92275 135.31906 27882 ft 436 kts 257°
2026-04-15 11:53 34.91570 135.28315 27883 ft 436 kts 257°
2026-04-15 11:53 34.90859 135.24716 27891 ft 436 kts 257°
2026-04-15 11:54 34.90150 135.21126 27889 ft 436 kts 257°
2026-04-15 11:54 34.89439 135.17521 27881 ft 437 kts 257°
2026-04-15 11:54 34.88730 135.13925 27881 ft 437 kts 257°
2026-04-15 11:54 34.88022 135.10335 27874 ft 437 kts 257°
2026-04-15 11:55 34.87312 135.06735 27878 ft 437 kts 257°
2026-04-15 11:55 34.86600 135.03134 27880 ft 437 kts 257°
2026-04-15 11:55 34.85886 134.99530 27887 ft 437 kts 257°
2026-04-15 11:55 34.85189 134.95924 27896 ft 436 kts 258°
2026-04-15 11:56 34.84521 134.92369 27886 ft 436 kts 258°
2026-04-15 11:56 34.83851 134.88775 27874 ft 435 kts 258°
2026-04-15 11:56 34.83180 134.85185 27875 ft 435 kts 258°
2026-04-15 11:56 34.82506 134.81600 27887 ft 434 kts 258°
2026-04-15 11:57 34.81831 134.78026 27871 ft 434 kts 258°
2026-04-15 11:57 34.80476 134.70880 27876 ft 432 kts 258°
2026-04-15 11:57 34.79800 134.67325 27891 ft 432 kts 258°
2026-04-15 11:58 34.79120 134.63759 27889 ft 431 kts 258°
2026-04-15 11:58 34.78437 134.60206 27909 ft 431 kts 258°
2026-04-15 11:58 34.77752 134.56655 27901 ft 431 kts 258°
2026-04-15 11:58 34.77071 134.53126 27901 ft 431 kts 258°
2026-04-15 11:59 34.76383 134.49568 27880 ft 431 kts 258°
2026-04-15 11:59 34.75701 134.46046 27890 ft 430 kts 259°
2026-04-15 11:59 34.75017 134.42494 27896 ft 429 kts 259°
2026-04-15 11:59 34.74345 134.38974 27905 ft 429 kts 259°
2026-04-15 12:00 34.73667 134.35417 27897 ft 429 kts 259°
2026-04-15 12:00 34.72995 134.31898 27899 ft 429 kts 259°
2026-04-15 12:00 34.72319 134.28365 27903 ft 428 kts 259°
2026-04-15 12:00 34.71651 134.24886 27901 ft 428 kts 259°
2026-04-15 12:01 34.70973 134.21358 27883 ft 428 kts 260°
2026-04-15 12:01 34.70294 134.17838 27892 ft 426 kts 260°
2026-04-15 12:01 34.69612 134.14348 27890 ft 425 kts 260°
2026-04-15 12:01 34.68926 134.10845 27895 ft 424 kts 260°
2026-04-15 12:02 34.68246 134.07364 27897 ft 423 kts 260°
2026-04-15 12:02 34.67567 134.03890 27907 ft 423 kts 260°
2026-04-15 12:02 34.66833 134.00436 27916 ft 424 kts 256°
2026-04-15 12:02 34.65844 133.97055 27907 ft 425 kts 253°
2026-04-15 12:03 34.64792 133.93699 27900 ft 425 kts 254°
2026-04-15 12:03 34.63732 133.90352 27900 ft 424 kts 254°
2026-04-15 12:03 34.62675 133.86996 27908 ft 424 kts 254°
2026-04-15 12:03 34.61646 133.83694 27910 ft 423 kts 254°
2026-04-15 12:04 34.60602 133.80318 27920 ft 423 kts 254°
2026-04-15 12:04 34.59574 133.76978 27916 ft 422 kts 254°
2026-04-15 12:04 34.58559 133.73680 27907 ft 422 kts 254°
2026-04-15 12:04 34.57532 133.70346 27904 ft 422 kts 254°
2026-04-15 12:05 34.56506 133.67017 27897 ft 421 kts 255°
2026-04-15 12:05 34.55478 133.63692 27893 ft 421 kts 255°
2026-04-15 12:05 34.54446 133.60374 27906 ft 420 kts 255°
2026-04-15 12:05 34.53374 133.57065 27906 ft 421 kts 254°
2026-04-15 12:06 34.52286 133.53780 27905 ft 421 kts 254°
2026-04-15 12:06 34.51190 133.50483 27903 ft 421 kts 254°
2026-04-15 12:06 34.50098 133.47189 27893 ft 421 kts 254°
2026-04-15 12:06 34.49011 133.43896 27887 ft 420 kts 254°
2026-04-15 12:07 34.47927 133.40609 27904 ft 420 kts 254°
2026-04-15 12:07 34.46844 133.37314 27889 ft 420 kts 255°
2026-04-15 12:07 34.45796 133.34018 27892 ft 419 kts 255°
2026-04-15 12:07 34.44762 133.30715 27902 ft 419 kts 255°
2026-04-15 12:08 34.43732 133.27417 27902 ft 419 kts 255°
2026-04-15 12:08 34.42695 133.24116 27899 ft 419 kts 255°
2026-04-15 12:08 34.41656 133.20818 27909 ft 419 kts 255°
2026-04-15 12:08 34.40613 133.17524 27894 ft 419 kts 255°
2026-04-15 12:09 34.39581 133.14282 27892 ft 419 kts 255°
2026-04-15 12:09 34.38516 133.10943 27906 ft 419 kts 255°
2026-04-15 12:09 34.37478 133.07693 27902 ft 419 kts 255°
2026-04-15 12:09 34.36425 133.04400 27907 ft 420 kts 255°
2026-04-15 12:10 34.35373 133.01111 27920 ft 419 kts 255°
2026-04-15 12:10 34.34320 132.97822 27916 ft 419 kts 255°
2026-04-15 12:10 34.33268 132.94535 27880 ft 418 kts 255°
2026-04-15 12:10 34.32217 132.91260 27911 ft 418 kts 255°
2026-04-15 12:11 34.31165 132.87981 27909 ft 417 kts 255°
2026-04-15 12:11 34.30121 132.84697 27907 ft 417 kts 255°
2026-04-15 12:11 34.29084 132.81414 27911 ft 417 kts 255°
2026-04-15 12:11 34.28052 132.78142 27904 ft 417 kts 255°
2026-04-15 12:12 34.27019 132.74870 27907 ft 417 kts 255°
2026-04-15 12:12 34.25982 132.71596 27910 ft 417 kts 255°
2026-04-15 12:12 34.24944 132.68318 27886 ft 417 kts 255°
2026-04-15 12:12 34.23905 132.65045 27902 ft 416 kts 255°
2026-04-15 12:13 34.22882 132.61835 27896 ft 417 kts 255°
2026-04-15 12:13 34.21841 132.58565 27906 ft 417 kts 255°
2026-04-15 12:13 34.20800 132.55291 27901 ft 417 kts 255°
2026-04-15 12:13 34.19758 132.52007 27902 ft 418 kts 255°
2026-04-15 12:14 34.18721 132.48724 27911 ft 418 kts 255°
2026-04-15 12:14 34.17686 132.45450 27911 ft 418 kts 255°
2026-04-15 12:14 34.16645 132.42165 27887 ft 418 kts 255°
2026-04-15 12:14 34.15604 132.38881 27924 ft 418 kts 255°
2026-04-15 12:15 34.14563 132.35604 27916 ft 418 kts 255°
2026-04-15 12:15 34.13520 132.32321 27920 ft 418 kts 255°
2026-04-15 12:15 34.12476 132.29039 27918 ft 419 kts 255°
2026-04-15 12:15 34.11432 132.25759 27916 ft 419 kts 255°
2026-04-15 12:16 34.10399 132.22521 27916 ft 419 kts 255°
2026-04-15 12:16 34.09271 132.19282 27925 ft 424 kts 248°
2026-04-15 12:16 34.07466 132.16352 27898 ft 438 kts 233°
2026-04-15 12:16 34.05340 132.13733 27840 ft 430 kts 234°
2026-04-15 12:17 34.03077 132.11425 27090 ft 441 kts 219°
2026-04-15 12:17 34.00168 132.10004 26115 ft 463 kts 203°
2026-04-15 12:17 33.97076 132.08972 25523 ft 453 kts 206°
2026-04-15 12:17 33.94200 132.07670 25406 ft 431 kts 210°
2026-04-15 12:18 33.91499 132.06281 25291 ft 414 kts 212°
2026-04-15 12:18 33.88915 132.04908 25201 ft 398 kts 212°
2026-04-15 12:18 33.86423 132.03582 25125 ft 385 kts 212°
2026-04-15 12:18 33.84014 132.02311 25059 ft 372 kts 212°
2026-04-15 12:19 33.81682 132.01093 24974 ft 359 kts 212°
2026-04-15 12:19 33.79423 131.99922 24919 ft 348 kts 213°
2026-04-15 12:19 33.77232 131.98791 24794 ft 338 kts 212°
2026-04-15 12:19 33.75066 131.97718 24541 ft 330 kts 217°
2026-04-15 12:20 33.73243 131.96173 24148 ft 314 kts 234°
2026-04-15 12:20 33.71989 131.94101 23770 ft 302 kts 251°
2026-04-15 12:20 33.71410 131.91734 23399 ft 293 kts 268°
2026-04-15 12:20 33.71546 131.89317 22965 ft 290 kts 285°
2026-04-15 12:21 33.72377 131.87111 22561 ft 293 kts 302°
2026-04-15 12:21 33.73814 131.85356 22163 ft 301 kts 320°
2026-04-15 12:21 33.75722 131.84245 21775 ft 312 kts 337°
2026-04-15 12:21 33.77907 131.83925 21405 ft 325 kts 355°
2026-04-15 12:22 33.80161 131.84454 21053 ft 337 kts 11°
2026-04-15 12:22 33.82348 131.85489 20732 ft 338 kts 15°
2026-04-15 12:22 33.84510 131.86611 20343 ft 338 kts 15°
2026-04-15 12:22 33.86665 131.87742 19769 ft 338 kts 16°
2026-04-15 12:23 33.88810 131.88868 19227 ft 336 kts 16°
2026-04-15 12:23 33.90229 131.89611 18873 ft 335 kts 16°
2026-04-15 12:23 33.93065 131.91085 18175 ft 333 kts 16°
2026-04-15 12:23 33.95192 131.92179 17578 ft 332 kts 16°
2026-04-15 12:24 33.97300 131.93294 16863 ft 336 kts 22°
2026-04-15 12:24 33.99139 131.95210 15670 ft 370 kts 50°
2026-04-15 12:24 34.00206 131.98145 14566 ft 398 kts 77°
2026-04-15 12:24 34.00200 132.01549 13512 ft 418 kts 102°
2026-04-15 12:25 33.99568 132.03734 12988 ft 417 kts 115°
2026-04-15 12:25 33.97446 132.07502 12193 ft 397 kts 135°
2026-04-15 12:25 33.96057 132.08847 11957 ft 383 kts 150°
2026-04-15 12:25 33.93618 132.09858 11664 ft 361 kts 176°
2026-04-15 12:26 33.91176 132.09689 11190 ft 346 kts 194°
2026-04-15 12:26 33.88966 132.08740 10842 ft 329 kts 209°
2026-04-15 12:26 33.86978 132.07499 10584 ft 315 kts 211°
2026-04-15 12:26 33.85078 132.06257 10283 ft 306 kts 211°
2026-04-15 12:27 33.82654 132.04668 9903 ft 294 kts 211°
2026-04-15 12:27 33.81448 132.03884 9695 ft 289 kts 210°
2026-04-15 12:27 33.79139 132.02393 9285 ft 280 kts 210°
2026-04-15 12:27 33.77988 132.01654 9083 ft 275 kts 210°
2026-04-15 12:28 33.76306 132.00578 8809 ft 275 kts 210°
2026-04-15 12:28 33.74596 131.99485 8539 ft 282 kts 210°
2026-04-15 12:28 33.72840 131.98364 8233 ft 289 kts 210°
2026-04-15 12:28 33.71045 131.97223 7926 ft 292 kts 210°
2026-04-15 12:29 33.69247 131.96081 7619 ft 292 kts 209°
2026-04-15 12:29 33.67457 131.94946 7321 ft 292 kts 209°
2026-04-15 12:29 33.65645 131.93818 6997 ft 292 kts 206°
2026-04-15 12:29 33.63769 131.92932 6647 ft 295 kts 199°
2026-04-15 12:30 33.61826 131.92145 6342 ft 295 kts 198°
2026-04-15 12:30 33.59855 131.91358 5718 ft 305 kts 199°
2026-04-15 12:30 33.57832 131.90538 5071 ft 308 kts 199°
2026-04-15 12:30 33.55800 131.89700 4422 ft 309 kts 199°
2026-04-15 12:31 33.53773 131.88854 3778 ft 310 kts 199°
2026-04-15 12:31 33.51759 131.88007 3548 ft 293 kts 199°
2026-04-15 12:31 33.49933 131.87237 3403 ft 270 kts 199°
2026-04-15 12:31 33.48159 131.86490 2787 ft 270 kts 199°
2026-04-15 12:32 33.46384 131.85770 2408 ft 266 kts 195°
2026-04-15 12:32 33.44631 131.85307 2305 ft 251 kts 190°
2026-04-15 12:32 33.42958 131.84934 2164 ft 237 kts 193°
2026-04-15 12:32 33.41383 131.84568 2051 ft 224 kts 195°
2026-04-15 12:33 33.39911 131.84216 2028 ft 209 kts 195°
2026-04-15 12:33 33.38525 131.83879 2022 ft 199 kts 196°
2026-04-15 12:33 33.37170 131.83546 2025 ft 198 kts 196°
2026-04-15 12:33 33.35858 131.83099 2023 ft 195 kts 209°
2026-04-15 12:34 33.34752 131.82263 2018 ft 188 kts 230°
2026-04-15 12:34 33.33966 131.81067 2020 ft 179 kts 251°
2026-04-15 12:34 33.33568 131.79692 2039 ft 173 kts 269°
2026-04-15 12:34 33.33521 131.78279 2038 ft 169 kts 283°
2026-04-15 12:35 33.33771 131.76940 2034 ft 162 kts 296°
2026-04-15 12:35 33.34278 131.75765 2035 ft 157 kts 310°
2026-04-15 12:35 33.35008 131.74801 1868 ft 155 kts 322°
2026-04-15 12:35 33.35893 131.74113 1660 ft 150 kts 334°
2026-04-15 12:36 33.36880 131.73734 1445 ft 152 kts 349°
2026-04-15 12:36 33.37948 131.73635 1378 ft 154 kts 355°
2026-04-15 12:36 33.39013 131.73626 1333 ft 152 kts 357°
2026-04-15 12:36 33.40023 131.73634 1265 ft 141 kts 356°
2026-04-15 12:37 33.40964 131.73644 1109 ft 133 kts 356°
2026-04-15 12:37 33.41898 131.73652 933 ft 135 kts 356°
2026-04-15 12:37 33.42828 131.73656 760 ft 131 kts 357°
2026-04-15 12:37 33.43715 131.73691 531 ft 128 kts 356°
2026-04-15 12:38 33.44591 131.73741 458 ft 127 kts 352°
2026-04-15 12:38 33.45522 131.73687 306 ft 137 kts 354°
2026-04-15 12:38 33.46462 131.73695 134 ft 131 kts 359°
2026-04-15 12:38 33.47312 131.73712 27 ft 111 kts 355°
2026-04-15 12:39 33.47934 131.73706 27 ft 69 kts
2026-04-15 12:39 33.48279 131.73710 29 ft 39 kts
2026-04-15 12:39 33.48395 131.73645 23 ft 18 kts 286°
2026-04-15 12:39 33.48357 131.73521 24 ft 17 kts 199°
2026-04-15 12:40 33.48238 131.73513 22 ft 17 kts 179°
2026-04-15 12:40 33.48124 131.73514 22 ft 16 kts 180°
2026-04-15 12:40 33.48013 131.73514 22 ft 16 kts 180°
2026-04-15 12:40 33.47908 131.73513 26 ft 15 kts 181°
2026-04-15 12:41 33.47806 131.73511 23 ft 14 kts 181°
2026-04-15 12:41 33.47730 131.73510 23 ft 0 kts 180°
2026-04-15 12:41 33.47728 131.73510 23 ft 1 kts 180°
2026-04-15 12:41 33.47706 131.73509 23 ft 6 kts 180°
2026-04-15 12:42 33.47649 131.73505 25 ft 5 kts 206°
2026-04-15 12:42 33.47644 131.73498 25 ft 1 kts 226°
2026-04-15 12:42 33.47639 131.73478 26 ft 4 kts 258°
2026-04-15 12:42 33.47640 131.73429 25 ft 8 kts 271°
2026-04-15 12:43 33.47640 131.73380 26 ft 4 kts 270°
2026-04-15 12:43 33.47640 131.73355 27 ft 1 kts 270°
2026-04-15 12:43 33.47640 131.73349 27 ft 0 kts 270°
2026-04-15 12:46 33.47640 131.73350 27 ft 0 kts 270°
2026-04-15 12:53 33.47640 131.73359 27 ft 7 kts 270°
2026-04-15 12:54 33.47641 131.73448 26 ft 15 kts 101°
2026-04-15 12:54 33.47629 131.73503 23 ft 7 kts 156°
2026-04-15 12:54 33.47541 131.73508 25 ft 15 kts 180°
2026-04-15 12:54 33.47477 131.73507 25 ft 4 kts 184°
2026-04-15 12:55 33.47458 131.73491 25 ft 4 kts 252°
2026-04-15 12:55 33.47455 131.73454 24 ft 4 kts 269°
2026-04-15 12:55 33.47454 131.73418 25 ft 4 kts 257°
2026-04-15 12:55 33.47454 131.73393 26 ft 6 kts 276°
2026-04-15 12:56 33.47455 131.73356 27 ft 6 kts 271°
2026-04-15 12:56 33.47455 131.73364 26 ft 7 kts 271°
2026-04-15 12:56 33.47455 131.73345 27 ft 57 kts 270°
2026-04-15 12:57 33.47456 131.73345 27 ft 0 kts 270°
2026-04-15 12:57 33.47455 131.73345 27 ft 0 kts 270°
2026-04-15 12:58 33.47456 131.73345 27 ft 0 kts 270°
2026-04-15 12:58 33.47455 131.73345 27 ft 0 kts 270°
2026-04-15 12:59 33.47456 131.73346 27 ft 0 kts 270°
2026-04-15 12:59 33.47455 131.73346 27 ft 0 kts 270°